Regional Weather Roundup
Issued by NWS Cleveland, OH

Home | Current Version | Previous Version | Text Only | Print | Product List | Glossary On
Versions: 1 2 3 4 5 6 7 8 9 10 11 12 13 14 15 16 17 18 19 20 21 22 23 24 25 26 27 28 29 30 31 32 33 34 35 36 37 38 39 40 41 42 43 44 45 46 47 48 49 50
000
ASUS41 KCLE 241902
RWRCLE
OHIO REGIONAL WEATHER ROUNDUP
NATIONAL WEATHER SERVICE CLEVELAND, OH
300 PM EDT TUE APR 24 2018

NOTE: "FAIR" INDICATES FEW OR NO CLOUDS BELOW 12,000 FEET WITH NO
SIGNIFICANT WEATHER AND/OR OBSTRUCTIONS TO VISIBILITY.

OHZ001>008-015>018-024>027-034-035-043-044-242000-
   NORTHWEST OHIO

CITY           SKY/WX    TMP DP  RH WIND       PRES   REMARKS
DEFIANCE       CLOUDY    54  52  93 E8        29.99F FOG
FINDLAY        LGT RAIN  55  51  86 E6        29.97F
TOLEDO EXPRESS CLOUDY    54  53  97 E9        30.00F FOG
TOLEDO EXEC    CLOUDY    53  50  89 E9        30.02F FOG
LIMA           CLOUDY    54  52  93 E12       29.96F
$$

OHZ009>014-019>023-028>033-038-089-242000-
   NORTHEAST OHIO

CITY           SKY/WX    TMP DP  RH WIND       PRES   REMARKS
CLE-HOPKINS    LGT RAIN  55  50  83 E10       30.06F
CLE-LAKEFRONT  LGT RAIN  54  48  80 E8        30.04F
CUY CO. ARPT   LGT RAIN  54  50  87 E14       30.06F
LORAIN-ELYRIA  LGT RAIN  53  46  77 E8        30.03F
ASHTABULA      LGT RAIN  52  49  89 SE12G23   30.09F
AKRON-CANTON   LGT RAIN  52  48  86 E12       30.04F FOG
WOOSTER        RAIN      51  50  96 SE12      30.02F FOG
MANSFIELD      CLOUDY    52  50  93 E14       29.99F
YOUNGSTOWN     LGT RAIN  51  49  92 E14       30.06F FOG
$$

OHZ042-051>053-060>062-070>072-077>081-242000-
  SOUTHWEST OHIO

CITY           SKY/WX    TMP DP  RH WIND       PRES   REMARKS
CINC-COVINGTON DRIZZLE   55  54  96 NE9       29.90F FOG
CINC-LUNKEN    CLOUDY    57  53  86 E7        29.92S
HAMILTON       CLOUDY    56  52  86 E8        29.92F
DAYTON         LGT RAIN  53  52  96 E12       29.94F
WRIGHT-PAT AFB LGT RAIN  54  51  87 E10       29.93F
DAYTON GENERAL CLOUDY    55  51  86 E9        29.91F
WILMINGTON     CLOUDY    53  52  96 E10G20    29.91F
$$

OHZ036-037-039>041-045>050-054>059-063>069-073>076-082>088-242000-
  CENTRAL AND SOUTHEAST OHIO

CITY           SKY/WX    TMP DP  RH WIND       PRES   REMARKS
COLUMBUS       LGT RAIN  54  51  90 E15       29.95F
OSU AIRPORT    LGT RAIN  53  51  93 E12       29.95F
BOLTON FIELD   DRIZZLE   52  52 100 E12       29.96F
RICKENBACK AFB NOT AVBL
NEWARK         LGT RAIN  53  51  93 E10       29.96F
MARION         CLOUDY    54  50  86 SE14      29.98F FOG
LANCASTER      LGT RAIN  53  52  96 E10       29.96F
ZANESVILLE     RAIN      53  50  89 E9        29.98F FOG
NEW PHILLY     NOT AVBL
$$




USA.gov is the U.S. government's official web portal to all federal, state and local government web resources and services.